Location: Bédeille
(43.0872°N, 1.1041°E)
Time: 12:11:39
(UTC+00:00)

Cosmos 1844 Rocket - Pass Details

Date: 03 February 2023
Orbit: 826 x 843 km, 71.0° (Epoch: 19 March)

Event Time Altitude Azimuth Distance (km) Brightness Sun altitude
Rises 19:24:49 0° 327° (NNW) 3,372 6.3 -24.8°
Reaches altitude 10° 19:27:25 10° 319° (NW) 2,434 5.6 -25.3°
Maximum altitude 19:32:26 36° 255° (WSW) 1,287 4.1 -26.2°
Drops below altitude 10° 19:37:27 10° 190° (S) 2,421 5.1 -27.1°
Sets 19:40:02 0° 182° (S) 3,351 5.8 -27.6°
